Change the Weather History Date:

Monday, December 24, 2012

  Actual Average Record
Temperature  
Mean Temperature 38 °F -  
Max Temperature 42 °F - - ()
Min Temperature 35 °F - - ()
Degree Days  
Heating Degree Days 26    
Moisture  
Dew Point 39 °F    
Average Humidity 98    
Maximum Humidity 100    
Minimum Humidity 93    
Precipitation  
Precipitation 0.16 in - - ()
Sea Level Pressure  
Sea Level Pressure 29.40 in    
Wind  
Wind Speed 5 mph ()    
Max Wind Speed 8 mph    
Max Gust Speed -    
Visibility 5.4 miles    
Events Rain    
T = Trace of Precipitation, MM = Missing Value Source: Averaged Metar Reports

Daily Weather History Graph

Daily Weather History Graph

Search for Another Location

Airport or City:

Trip Planner

Search our weather history database for the weather conditions in past years. The results will help you decide how hot, cold, wet, or windy it might be!

Date:

Astronomy

Dec. 24, 2012 Rise Set
Actual Time 8:22 AM GMT 3:47 PM GMT
Civil Twilight 7:38 AM GMT 4:30 PM GMT
Nautical Twilight 6:52 AM GMT 5:16 PM GMT
Astronomical Twilight 6:09 AM GMT 5:59 PM GMT
Moon 1:17 PM GMT (12/24) 4:32 AM GMT (12/24)
Length of Visible Light 8h 52m
Length of Day
7h 24m
Waxing Gibbous, 87% of the Moon is Illuminated
Dec 24
Waxing Gibbous
Dec 28
Full
Jan 5
Last Quarter
Jan 11
New
Jan 18
First Quarter

Hourly Weather History & Observations

Time (GMT) Temp. Windchill Dew Point Humidity Pressure Visibility Wind Dir Wind Speed Gust Speed Precip Events Conditions
12:50 AM 37.4 °F 34.9 °F 35.6 °F 93% 29.59 in 6.2 mi SE 3.5 mph - N/A   Mostly Cloudy
1:50 AM 37.4 °F 34.9 °F 35.6 °F 93% 29.59 in 6.2 mi East 3.5 mph - N/A   Mostly Cloudy
2:50 AM 37 °F - 36 °F 94% 29.60 in 16 mi East 4.6 mph - -   Mostly Cloudy
2:50 AM 37.4 °F 33.8 °F 35.6 °F 93% 29.59 in 6.2 mi East 4.6 mph - N/A   Mostly Cloudy
3:50 AM 35.6 °F 29.9 °F 35.6 °F 100% 29.56 in 6.2 mi ESE 6.9 mph - N/A   Mostly Cloudy
4:50 AM 37.4 °F 32.1 °F 37.4 °F 100% 29.53 in 6.2 mi South 6.9 mph - N/A   Mostly Cloudy
5:50 AM 36 °F - 36 °F 98% 29.54 in 10 mi SSE 4.6 mph - -  
5:50 AM 35.6 °F 31.7 °F 35.6 °F 100% 29.53 in 6.2 mi SSE 4.6 mph - N/A   Overcast
6:50 AM 39.2 °F 34.2 °F 39.2 °F 100% 29.50 in 6.2 mi SSE 6.9 mph - N/A   Overcast
7:50 AM 41.0 °F 37.1 °F 39.2 °F 93% 29.50 in 6.2 mi SSE 5.8 mph - N/A   Overcast
8:50 AM 40 °F - 40 °F 99% 29.49 in 6 mi SE 6.9 mph - -   Overcast
8:50 AM 41.0 °F 36.4 °F 39.2 °F 93% 29.47 in 6.2 mi SE 6.9 mph - N/A   Overcast
9:50 AM 41.0 °F 38.0 °F 41.0 °F 100% 29.44 in 3.7 mi SE 4.6 mph - N/A   Light Drizzle
10:50 AM 42.8 °F 41.1 °F 42.8 °F 100% 29.42 in - SE 3.5 mph - N/A Rain Light Rain
11:50 AM 43 °F - 42 °F 97% 29.38 in 2 mi SE 3.5 mph - - Rain Rain
11:50 AM 42.8 °F 41.1 °F 42.8 °F 100% 29.36 in - SE 3.5 mph - N/A Rain Rain
12:50 PM 42.8 °F 41.1 °F 42.8 °F 100% 29.33 in 1.4 mi ENE 3.5 mph - N/A Rain Rain
1:50 PM 42.8 °F 40.1 °F 42.8 °F 100% 29.27 in 1.2 mi NE 4.6 mph - N/A Rain Rain
2:50 PM 43 °F - 42 °F 97% 29.29 in 3 mi WNW 5.8 mph - - Rain Light Rain
2:50 PM 42.8 °F 39.3 °F 42.8 °F 100% 29.27 in - WNW 5.8 mph - N/A Rain Light Rain
3:50 PM 41.0 °F 38.0 °F 41.0 °F 100% 29.27 in - WNW 4.6 mph - N/A   Light Drizzle
4:50 PM 41.0 °F 38.0 °F 41.0 °F 100% 29.30 in 1.7 mi SW 4.6 mph - N/A   Mostly Cloudy
5:50 PM 39 °F - 39 °F 98% 29.31 in 3 mi South 4.6 mph - -   Mist
5:50 PM 39.2 °F 35.9 °F 39.2 °F 100% 29.30 in 3.1 mi South 4.6 mph - N/A   Mostly Cloudy
6:50 PM 41.0 °F 35.8 °F 41.0 °F 100% 29.30 in 6.2 mi SSW 8.1 mph - N/A   Mostly Cloudy
7:50 PM 39.2 °F 34.2 °F 39.2 °F 100% 29.30 in 5.0 mi South 6.9 mph - N/A   Scattered Clouds
8:50 PM 41 °F - 40 °F 93% 29.32 in 7 mi South 8.1 mph - - Rain Rain Showers
8:50 PM 41.0 °F 35.8 °F 39.2 °F 93% 29.30 in 6.2 mi South 8.1 mph - N/A Rain Rain Showers
9:50 PM 37.4 °F 33.8 °F 35.6 °F 93% 29.30 in 3.7 mi South 4.6 mph - N/A   Scattered Clouds
10:50 PM 37.4 °F 32.1 °F 37.4 °F 100% 29.27 in - South 6.9 mph - N/A   Mist
11:50 PM 39 °F - 39 °F 100% 29.30 in 5 mi SSW 4.6 mph - -   Mist
11:50 PM 39.2 °F 35.9 °F 39.2 °F 100% 29.30 in 5.0 mi SSW 4.6 mph - N/A   Scattered Clouds